This is the latest recevied weather packets stored in our database for station/object WD4IXD. If no packets are shown the sender has not sent any weather packets the latest 1 day(s).
| Time | Temp. | Humidity | Pressure | Rain* | Wind** | Luminosity | Snow |
|---|---|---|---|---|---|---|---|
| 1777974615 | 7.22° C | 91% | 1012.9 hPa | 0 mm | 4.47 m/s, 350° | 0 W/m² | - |
| 1777974315 | 7.78° C | 92% | 1012.9 hPa | 0 mm | 4.47 m/s, 341° | 0 W/m² | - |
| 1777974003 | 8.33° C | 93% | 1012.7 hPa | 0 mm | 3.58 m/s, 352° | 0 W/m² | - |
| 1777973715 | 8.33° C | 93% | 1012.7 hPa | 0 mm | 2.24 m/s, 356° | 0 W/m² | - |
| 1777973404 | 8.33° C | 93% | 1012.7 hPa | 0 mm | 2.24 m/s, 356° | 0 W/m² | - |
| 1777973115 | 8.33° C | 92% | 1012.8 hPa | 0 mm | 2.68 m/s, 1° | 0 W/m² | - |
| 1777972804 | 8.33° C | 92% | 1012.8 hPa | 0 mm | 1.79 m/s, 357° | 0 W/m² | - |
| 1777972515 | 8.33° C | 92% | 1012.8 hPa | 0 mm | 2.24 m/s, 354° | 0 W/m² | - |
| 1777972204 | 8.33° C | 92% | 1012.7 hPa | 0 mm | 2.24 m/s, 1° | 0 W/m² | - |
| 1777971915 | 8.33° C | 92% | 1012.7 hPa | 0 mm | 1.34 m/s, 344° | 0 W/m² | - |
| 1777971604 | 8.33° C | 92% | 1012.7 hPa | 0 mm | 1.34 m/s, 340° | 0 W/m² | - |
| 1777971315 | 8.33° C | 92% | 1012.6 hPa | 0 mm | 1.79 m/s, 343° | 0 W/m² | - |
| 1777971004 | 8.33° C | 92% | 1012.7 hPa | 0 mm | 0.45 m/s, 350° | 0 W/m² | - |
| 1777970715 | 8.33° C | 92% | 1012.7 hPa | 0 mm | 0.45 m/s, 137° | 0 W/m² | - |
| 1777970404 | 8.33° C | 92% | 1012.7 hPa | 0 mm | 0 m/s | 0 W/m² | - |
| 1777970115 | 8.33° C | 92% | 1012.7 hPa | 0 mm | 0 m/s | 0 W/m² | - |
| 1777969804 | 8.33° C | 92% | 1012.6 hPa | 0 mm | 0 m/s | 0 W/m² | - |
| 1777969515 | 8.33° C | 92% | 1012.6 hPa | 0 mm | 0 m/s | 0 W/m² | - |
| 1777969204 | 8.33° C | 92% | 1012.7 hPa | 0 mm | 0 m/s | 0 W/m² | - |
| 1777968915 | 8.33° C | 92% | 1012.8 hPa | 0 mm | 0 m/s | 0 W/m² | - |
| 1777968603 | 8.33° C | 92% | 1012.9 hPa | 0 mm | 0.89 m/s, 137° | 0 W/m² | - |
| 1777968315 | 8.33° C | 92% | 1012.9 hPa | 0 mm | 0.45 m/s, 137° | 0 W/m² | - |
| 1777968004 | 8.33° C | 92% | 1012.9 hPa | 0 mm | 0.45 m/s, 137° | 0 W/m² | - |
| 1777967714 | 8.33° C | 92% | 1012.9 hPa | 0 mm | 1.34 m/s, 137° | 0 W/m² | - |
| 1777967404 | 8.33° C | 92% | 1012.9 hPa | 0 mm | 0.89 m/s, 137° | 0 W/m² | - |
* Rain latest hour (hover to see other rain measurements)
** Current wind speed in m/s (hover to see current wind gust speed)